Friday Harbor, WA

10:21 PM PST on January 19, 2017 (GMT -0800)
Friday Harbor

Weather History for KFHR - January, 2014

Change the Weather History Date:

Friday, January 10, 2014

  Actual Average Record
Temperature  
Mean Temperature 46 °F -  
Max Temperature 48 °F 43 °F 50 °F (2001)
Min Temperature 45 °F 35 °F 19 °F (1998)
Degree Days  
Heating Degree Days 18    
Moisture  
Dew Point 44 °F    
Average Humidity 91    
Maximum Humidity 100    
Minimum Humidity 77    
Precipitation  
Precipitation 0.10 in - - ()
Sea Level Pressure  
Sea Level Pressure 29.83 in    
Wind  
Wind Speed 10 mph (SE)    
Max Wind Speed 25 mph    
Max Gust Speed 38 mph    
Visibility 9 miles    
Events Rain    
Averages and records for this station are not official NWS values.
T = Trace of Precipitation, MM = Missing Value Source: NWS Daily Summary

Daily Weather History Graph

Daily Weather History Graph

Search for Another Location

Airport or City:

Trip Planner

Search our weather history database for the weather conditions in past years. The results will help you decide how hot, cold, wet, or windy it might be!

Date:

Astronomy

Jan. 10, 2014 Rise Set
Actual Time 8:01 AM PST 4:38 PM PST
Civil Twilight 7:25 AM PST 5:13 PM PST
Nautical Twilight 6:46 AM PST 5:53 PM PST
Astronomical Twilight 6:08 AM PST 6:31 PM PST
Moon 12:51 PM PST (1/10) 3:07 AM PST (1/10)
Length of Visible Light 9h 48m
Length of Day
8h 36m
Waxing Gibbous, 76% of the Moon is Illuminated
Jan 10
Waxing Gibbous
Jan 15
Full
Jan 23
Last Quarter
Jan 30
New
Feb 6
First Quarter

Hourly Weather History & Observations

Time (PST) Temp. Windchill Dew Point Humidity Pressure Visibility Wind Dir Wind Speed Gust Speed Precip Events Conditions
12:53 AM - - - N/A% 29.79 in - North - - N/A   Unknown
1:53 AM - - - N/A% 29.82 in - North - - N/A   Unknown
2:53 AM - - - N/A% 29.86 in - North - - N/A   Unknown
3:53 AM - - - N/A% 29.88 in - North - - N/A   Unknown
4:53 AM - - - N/A% 29.90 in - North - - N/A   Unknown
5:53 AM - - - N/A% 29.93 in - North - - N/A   Unknown
6:53 AM - - - N/A% 29.94 in - North - - N/A   Unknown
7:53 AM - - - N/A% 29.97 in - North - - N/A   Unknown
8:53 AM - - - N/A% 30.00 in - North - - N/A   Unknown
10:53 AM - - - N/A% 30.04 in - North - - N/A   Unknown
11:53 AM 46.9 °F - 39.9 °F 77% 30.03 in 10.0 mi SW 8.1 mph - N/A   Overcast
12:53 PM 46.9 °F - 39.9 °F 77% 30.00 in 10.0 mi SW 5.8 mph - N/A   Overcast
1:18 PM 46.9 °F - 41.0 °F 80% 30.00 in 10.0 mi SW 5.8 mph - N/A   Overcast
1:53 PM 46.9 °F - 41.0 °F 80% 29.99 in 10.0 mi SW 8.1 mph - N/A   Overcast
2:27 PM 46.0 °F 41.9 °F 42.1 °F 86% 29.97 in 7.0 mi SSW 8.1 mph - 0.00 in Rain Light Rain
2:53 PM 45.0 °F 42.6 °F 43.0 °F 93% 29.96 in 8.0 mi SSW 4.6 mph - 0.00 in Rain Light Rain
3:53 PM 45.0 °F 41.2 °F 42.1 °F 90% 29.91 in 7.0 mi East 6.9 mph - 0.00 in Rain Light Rain
4:12 PM 45.0 °F 41.8 °F 42.1 °F 90% 29.90 in 10.0 mi ENE 5.8 mph - 0.00 in Rain Light Rain
4:41 PM 45.0 °F 41.2 °F 43.0 °F 93% 29.87 in 8.0 mi East 6.9 mph - 0.00 in Rain Light Rain
4:53 PM 45.0 °F 40.1 °F 43.0 °F 93% 29.86 in 7.0 mi East 9.2 mph - 0.00 in Rain Light Rain
5:36 PM 45.0 °F 38.2 °F 43.0 °F 93% 29.80 in 7.0 mi ESE 15.0 mph - 0.00 in Rain Light Rain
5:53 PM 45.0 °F 38.2 °F 45.0 °F 100% 29.77 in 9.0 mi ESE 15.0 mph - 0.00 in Rain Light Rain
6:53 PM 46.0 °F 39.0 °F 45.0 °F 96% 29.72 in 10.0 mi SE 17.3 mph 29.9 mph 0.00 in Rain Light Rain
7:53 PM 46.0 °F 39.0 °F 45.0 °F 96% 29.67 in 7.0 mi ESE 17.3 mph 26.5 mph 0.05 in Rain Light Rain
8:53 PM 46.0 °F 38.0 °F 45.0 °F 96% 29.61 in 9.0 mi SE 21.9 mph 35.7 mph 0.01 in Rain Light Rain
9:53 PM 46.9 °F - 46.0 °F 97% 29.53 in 10.0 mi SE 21.9 mph 38.0 mph 0.01 in Rain Light Rain
10:53 PM 46.9 °F - 46.9 °F 100% 29.46 in 9.0 mi SE 24.2 mph 36.8 mph 0.03 in Rain Light Rain
11:44 PM 48.0 °F - 46.9 °F 96% 29.41 in 10.0 mi SE 18.4 mph 32.2 mph 0.00 in Rain Light Rain
11:53 PM 48.0 °F - 48.0 °F 100% 29.41 in 10.0 mi SE 25.3 mph 36.8 mph 0.00 in Rain Light Rain